Location: Asheville, NC
(35.6000°N, 82.5500°W)
Time: 20:17:42
(UTC-04:00)

KKS-1 - Pass Details

Date: 14 March 2018
Orbit: 638 x 649 km, 98.4° (Epoch: 24 June)

Event Time Altitude Azimuth Distance (km) Brightness Sun altitude
Rises 19:53:56 0° 359° (N) 2,963 ? -4.3°
Reaches altitude 10° 19:56:24 10° 348° (NNW) 2,046 ? -4.8°
Maximum altitude 20:00:09 27° 290° (WNW) 1,231 ? -5.5°
Drops below altitude 10° 20:03:52 10° 233° (SW) 2,029 ? -6.3°
Sets 20:06:18 0° 221° (SW) 2,932 ? -6.8°
